Overview Statistics Trail Chart Weather Telemetry Raw packets
 

This is the latest recevied weather packets stored in our database for station/object N5CSU. If no packets are shown the sender has not sent any weather packets the latest 10 day(s).

<< 86 87 88 89 90 91 92 >>
Time Temp. Humidity Pressure Rain* Wind** Luminosity Snow
1787984586 30° C 56% 1017.2 hPa 0 mm - 0 W/m² -
1787984286 30° C 56% 1017.1 hPa 0 mm - 0 W/m² -
1787983984 30° C 55% 1017.1 hPa 0 mm - 0 W/m² -
1787983680 30° C 55% 1016.9 hPa 0 mm - 0 W/m² -
1787983374 30° C 54% 1017.1 hPa 0 mm - 0 W/m² -
1787983069 30.56° C 53% 1016.9 hPa 0 mm - 0 W/m² -
1787982765 30.56° C 52% 1016.9 hPa 0 mm - 0 W/m² -
1787982460 30.56° C 51% 1017 hPa 0 mm - 0 W/m² -
1787982156 31.11° C 50% 1017 hPa 0 mm - 0 W/m² -
1787981852 31.11° C 50% 1016.9 hPa 0 mm - 0 W/m² -
1787981546 31.11° C 50% 1017.2 hPa 0 mm - 0 W/m² -
1787981241 31.67° C 49% 1017.1 hPa 0 mm - 0 W/m² -
1787980941 31.67° C 49% 1016.9 hPa 0 mm - 0 W/m² -
1787980639 31.67° C 48% 1016.9 hPa 0 mm - 0 W/m² -
1787980335 31.67° C 48% 1017 hPa 0 mm - 0 W/m² -
1787980030 32.22° C 47% 1016.9 hPa 0 mm - 0 W/m² -
1787979726 32.22° C 47% 1016.9 hPa 0 mm - 0 W/m² -
1787979424 32.22° C 47% 1016.7 hPa 0 mm - 0 W/m² -
1787979124 32.22° C 46% 1016.8 hPa 0 mm - 0 W/m² -
1787978823 32.22° C 47% 1016.6 hPa 0 mm - 0 W/m² -
1787978518 32.22° C 47% 1016.4 hPa 0 mm - 0 W/m² -
1787978215 31.67° C 47% 1016.5 hPa 0 mm - 0 W/m² -
1787977913 32.22° C 47% 1016.3 hPa 0 mm - 0 W/m² -
1787977613 32.22° C 47% 1016.6 hPa 0 mm - 0 W/m² -
1787977303 32.22° C 46% 1016.5 hPa 0 mm - 0 W/m² -

* Rain latest hour (hover to see other rain measurements)
** Current wind speed in m/s (hover to see current wind gust speed)